SL-16 DEB, 39302

Orbit data source: Space-Track

SL-16 DEB, 39302 is space debris in LEO originally from a launch on Fri, 25 Dec 1992 UTC launched from the Tyuratam Missile And Space Complex (TTMTR). Debris objects in space refer to the collection of defunct objects orbiting the Earth. Examples of debris include non-operational satellites, rocket bodies, and fragments generated from explosions, collisions, or faulty payload assembly.

Loading next visibility...
Identifier
39302, 1992-093JT
Orbit
LEO
Country
Flag of CISCIS
Related business
Manufacturer
Unknown
Mission
Spacecraft
Bus & Motor
Unknown
Mass
Unknown
Launch date (UTC)
1992-12-25 (33 years ago)
Launch vehicle
Unknown
Launch site
Tyuratam Missile And Space Complex (TTMTR)
Object type
Payload
Rocket body
Debris
Shape & HBR
Unknown shape, 0.1 m
Radar Cross Section
Small (<0.1 m²)

Expand to show TLE details & history
Last TLE update: 4 days ago

TLE from 4 days ago
0 SL-16 DEB
1 39302U 92093JT  26123.65874358  .00005418  00000-0  19067-2 0  9993
2 39302  70.9826  86.3390 0109580  19.5594 160.7696 14.31947353651902
Epoch: 2026-05-03T15:48Z
TLE epoch observation values (Epoch: 2026-05-03T15:48:35.445Z)
Latitude
-0.80845°
Longitude
167.90939°
Altitude
861.976 km
Speed
7.383 km/s
True Right ascension
17h 46m 27s
True Declination
0° 48' 13"
Sunlit
Object was in full shadow at epoch
Visualization orbit readout
Latitude
Unknown
Longitude
Unknown
Altitude
Unknown
Speed
Unknown
Apparent Right ascension
Unknown
Apparent Declination
Unknown
Sunlit
N/A
Visualization observer readout
Local Sidereal Time
19:07:38
Azimuth
Unknown
Elevation
Unknown
Doppler factor
Unknown
Orbital elements
Apogee altitude
861.612 km
Perigee altitude
704.665 km
Semi-major axis
7,161.276 km
Eccentricity
0.01096
Inclination
70.9826°
RAAN
86.339°
Arg. of periapsis
19.5594°
True anomaly
161.1779°
Mean anomaly
160.7696°
Eccentric anomaly
160.97427°
Mean motion
3.58144 °/min
Orbital period
100.52 mins
BSTAR
0.0019067
Loading maneuver chart data...
Computing Atmospheric mass density...
Loading historical data...
Loading historical data...
Loading historical data...
Loading historical data...
Loading historical data...
Loading historical data...
Loading historical data...

Documentation

Showing up to 5 results
|